Flag for United Kingdom Weather past 2 weeks in Norwich, England, United Kingdom

43 °F

Quite cool.

Feels Like: 35 °F
Forecast: 42 / 53 °F
Wind: 17 mph from West

Location: Norwich Weather Centre

Current Time: Nov 30, 2015 at 2:05:14 AM

Latest Report: Nov 30, 2015 at 1:20 AM

Visibility: N/A

Pressure: 29.95 "Hg

Humidity: 71%

Dew point: 34 °F

Location of NorwichLocation

Historic Weather in Norwich — Graph


Norwich temperature yesterday

Maximum temperature yesterday: 54 °F (at 12:50 PM)
Minimum temperature yesterday: 45 °F (at 11:20 PM)
Average temperature yesterday: 49 °F

Past Weeks' High & Low Weather Summary

High61 °F (Nov 15, 12:50 PM)100% (Nov 16, 11:50 PM)30.24 "Hg (Nov 16, 11:50 PM)
Low28 °F (Nov 23, 1:20 AM)63% (Nov 17, 9:50 PM)29.36 "Hg (Nov 17, 4:50 PM)
Average46 °F87%29.78 "Hg
* Reported Nov 15 12:20 AM — Nov 30 12:20 AM, Norwich, Weather by CustomWeather, © 2015

Note: Actual official high and low records may vary slightly from our data, if they occured in-between our weather recording intervals... More about our weather records


Norwich weather history for previous 24 hours

Time TempWeatherWind HumidityBarometerVisibility
12:20 AM
Mon, Nov 30
45 °FQuite cool.20 mph71%29.92 "HgN/A
11:20 PM
Sun, Nov 29
45 °FPassing clouds.21 mph71%29.89 "HgN/A
10:50 PM46 °FCool.22 mph66%29.86 "HgN/A
10:20 PM46 °FCool.20 mph66%29.83 "HgN/A
9:50 PM46 °FClear.22 mph71%29.83 "Hg10 mi
9:20 PM46 °FPassing clouds.21 mph76%29.80 "HgN/A
8:50 PM48 °FLight rain. Passing clouds.20 mph76%29.80 "HgN/A
8:20 PM50 °FPassing clouds.20 mph71%29.74 "HgN/A
7:50 PM48 °FClear.18 mph76%29.71 "Hg10 mi
7:20 PM50 °FClear.21 mph67%29.71 "Hg10 mi
6:50 PM50 °FPassing clouds.20 mph67%29.68 "HgN/A
6:20 PM50 °FPassing clouds.21 mph67%29.65 "HgN/A
5:50 PM52 °FPassing clouds.24 mph67%29.62 "HgN/A
5:20 PM52 °FRain. Passing clouds.28 mph77%29.62 "HgN/A
4:50 PM54 °FLight rain. Passing clouds.31 mph77%29.59 "HgN/A
4:20 PM54 °FLight rain. Partly cloudy.29 mph82%29.56 "HgN/A
3:50 PM54 °FPartly cloudy.25 mph82%29.53 "HgN/A
3:20 PM54 °FBroken clouds.28 mph77%29.53 "HgN/A
2:50 PM54 °FPassing clouds.28 mph77%29.53 "HgN/A
2:20 PM54 °FPassing clouds.28 mph72%29.53 "HgN/A
1:50 PM54 °FPassing clouds.24 mph72%29.53 "HgN/A
1:20 PM54 °FPassing clouds.28 mph77%29.53 "HgN/A
12:50 PM54 °FPartly sunny.25 mph77%29.56 "HgN/A
12:20 PM52 °FScattered clouds.21 mph82%29.56 "HgN/A
11:50 AM52 °FLight rain. Scattered clouds.21 mph82%29.56 "Hg6 mi
11:20 AM52 °FScattered clouds.20 mph82%29.56 "HgN/A
10:50 AM50 °FBroken clouds.16 mph94%29.59 "HgN/A
10:20 AM50 °FLight rain. Partly sunny.18 mph88%29.59 "Hg6 mi
9:20 AM48 °FLight rain. Partly sunny.16 mph87%29.62 "HgN/A
8:50 AM48 °FLight rain. Passing clouds.14 mph87%29.62 "HgN/A
8:20 AM48 °FLight rain. Passing clouds.16 mph82%29.62 "HgN/A
7:50 AM48 °FPassing clouds.15 mph82%29.65 "HgN/A
6:50 AM48 °FPassing clouds.17 mph82%29.62 "HgN/A
6:20 AM48 °FPassing clouds.17 mph82%29.65 "HgN/A
5:50 AM48 °FPassing clouds.16 mph82%29.62 "HgN/A
5:20 AM48 °FPassing clouds.15 mph87%29.62 "HgN/A
4:50 AM46 °FPassing clouds.14 mph87%29.62 "HgN/A
4:20 AM48 °FPartly cloudy.14 mph82%29.62 "HgN/A
3:50 AM48 °FPassing clouds.15 mph82%29.62 "HgN/A
3:20 AM48 °FPassing clouds.16 mph82%29.62 "HgN/A
2:50 AM48 °FPassing clouds.21 mph82%29.62 "HgN/A
2:20 AM48 °FCool.21 mph82%29.62 "HgN/A
Weather by CustomWeather, © 2015

See weather overviewHow to use our weather pages